CE1CVI-13 Weather Reports


Display with metric or nautical units.
time (UTC)temp
F
wind
direction
speed
MPH
gust
MPH
rain 1hr
in
rain 24hr
in
rain mn
in
humidity
%
barometer
mb
20190721211300 65 0.0 0.0 0.00 0.00 0.00 60 1016.8
20190721210300 65 0.0 0.0 0.00 0.00 0.00 60 1016.6
20190721205300 65 0.0 0.0 0.00 0.00 0.00 61 1016.5
20190721204300 66 0.0 0.0 0.00 0.00 0.00 60 1016.3
20190721203300 66 0.0 0.0 0.00 0.00 0.00 60 1016.3
20190721202300 65 0.0 0.0 0.00 0.00 0.00 61 1016.1
20190721201300 66 0.0 0.0 0.00 0.00 0.00 60 1016.1
20190721200300 66 0.0 0.0 0.00 0.00 0.00 59 1016.2
20190721195300 67 0.0 0.0 0.00 0.00 0.00 59 1016.2
20190721194300 66 0.0 0.0 0.00 0.00 0.00 59 1016.4
20190721193300 67 0.0 0.0 0.00 0.00 0.00 58 1016.5
20190721192300 67 0.0 0.0 0.00 0.00 0.00 58 1016.6
20190721191300 67 0.0 0.0 0.00 0.00 0.00 59 1016.6
20190721190301 67 0.0 0.0 0.00 0.00 0.00 57 1016.6
20190721185300 67 0.0 0.0 0.00 0.00 0.00 57 1016.8
20190721184300 67 0.0 0.0 0.00 0.00 0.00 58 1016.8
20190721183300 67 0.0 0.0 0.00 0.00 0.00 58 1016.9
20190721182300 67 0.0 0.0 0.00 0.00 0.00 59 1016.8
20190721181301 67 0.0 0.0 0.00 0.00 0.00 59 1016.8
20190721180300 66 0.0 0.0 0.00 0.00 0.00 59 1016.6
20190721175300 67 0.0 0.0 0.00 0.00 0.00 58 1016.7
20190721174300 68 0.0 0.0 0.00 0.00 0.00 57 1016.7
20190721173301 68 0.0 0.0 0.00 0.00 0.00 57 1016.7
20190721172300 68 0.0 0.0 0.00 0.00 0.00 59 1016.9
20190721171300 69 0.0 0.0 0.00 0.00 0.00 58 1016.9
20190721170300 69 0.0 0.0 0.00 0.00 0.00 59 1017.2
20190721165301 68 0.0 0.0 0.00 0.00 0.00 57 1017.2
20190721164300 68 0.0 0.0 0.00 0.00 0.00 56 1017.5
20190721163300 68 0.0 0.0 0.00 0.00 0.00 57 1017.6
20190721162300 68 0.0 0.0 0.00 0.00 0.00 58 1017.8
20190721161301 68 0.0 0.0 0.00 0.00 0.00 58 1017.8
20190721160300 68 0.0 0.0 0.00 0.00 0.00 59 1018.0
20190721155300 69 0.0 0.0 0.00 0.00 0.00 59 1018.0
20190721154301 69 0.0 0.0 0.00 0.00 0.00 61 1018.3
20190721153300 69 0.0 0.0 0.00 0.00 0.00 61 1018.2
20190721152300 69 0.0 0.0 0.00 0.00 0.00 60 1018.3
20190721151300 69 0.0 0.0 0.00 0.00 0.00 60 1018.4
20190721150300 69 0.0 0.0 0.00 0.00 0.00 60 1018.2
20190721145300 69 0.0 0.0 0.00 0.00 0.00 60 1018.2
20190721144300 69 0.0 0.0 0.00 0.00 0.00 59 1018.3
20190721143300 69 0.0 0.0 0.00 0.00 0.00 58 1018.2
20190721142300 68 0.0 0.0 0.00 0.00 0.00 62 1018.4
20190721141300 68 0.0 0.0 0.00 0.00 0.00 60 1018.3
20190721140300 68 0.0 0.0 0.00 0.00 0.00 58 1018.4
20190721135301 68 0.0 0.0 0.00 0.00 0.00 58 1018.2
20190721134301 68 0.0 0.0 0.00 0.00 0.00 59 1018.5
20190721133300 68 0.0 0.0 0.00 0.00 0.00 58 1018.4
20190721132301 67 0.0 0.0 0.00 0.00 0.00 58 1018.4
20190721131300 67 0.0 0.0 0.00 0.00 0.00 58 1018.2
20190721130300 67 0.0 0.0 0.00 0.00 0.00 58 1018.1
20190721125300 67 0.0 0.0 0.00 0.00 0.00 58 1017.8
20190721124300 67 0.0 0.0 0.00 0.00 0.00 58 1017.5
20190721123300 67 0.0 0.0 0.00 0.00 0.00 59 1017.5
20190721122300 67 0.0 0.0 0.00 0.00 0.00 59 1017.4
20190721121300 67 0.0 0.0 0.00 0.00 0.00 59 1017.5
20190721120300 67 0.0 0.0 0.00 0.00 0.00 59 1017.5
20190721115300 67 0.0 0.0 0.00 0.00 0.00 60 1017.4
20190721114300 67 0.0 0.0 0.00 0.00 0.00 59 1017.2
20190721113300 67 0.0 0.0 0.00 0.00 0.00 59 1017.1
20190721112301 67 0.0 0.0 0.00 0.00 0.00 60 1017.1
20190721111300 67 0.0 0.0 0.00 0.00 0.00 60 1017.2
20190721110300 67 0.0 0.0 0.00 0.00 0.00 60 1017.1
20190721105300 67 0.0 0.0 0.00 0.00 0.00 60 1017.1
20190721104300 67 0.0 0.0 0.00 0.00 0.00 60 1017.2
20190721103300 67 0.0 0.0 0.00 0.00 0.00 60 1017.1
20190721102300 67 0.0 0.0 0.00 0.00 0.00 60 1017.2
20190721101301 67 0.0 0.0 0.00 0.00 0.00 60 1017.0
20190721100300 67 0.0 0.0 0.00 0.00 0.00 60 1016.8
20190721095300 67 0.0 0.0 0.00 0.00 0.00 60 1016.7
20190721094300 67 0.0 0.0 0.00 0.00 0.00 60 1016.8
20190721093300 67 0.0 0.0 0.00 0.00 0.00 60 1016.7
20190721092300 67 0.0 0.0 0.00 0.00 0.00 60 1016.5
20190721091300 68 0.0 0.0 0.00 0.00 0.00 60 1016.5
20190721090300 68 0.0 0.0 0.00 0.00 0.00 60 1016.6
20190721085300 67 0.0 0.0 0.00 0.00 0.00 60 1016.5
20190721084300 68 0.0 0.0 0.00 0.00 0.00 60 1016.6
20190721083300 68 0.0 0.0 0.00 0.00 0.00 60 1016.5
20190721082300 68 0.0 0.0 0.00 0.00 0.00 60 1016.5
20190721081300 68 0.0 0.0 0.00 0.00 0.00 60 1016.4
20190721080300 68 0.0 0.0 0.00 0.00 0.00 60 1016.3
20190721075300 68 0.0 0.0 0.00 0.00 0.00 60 1016.2
20190721074300 68 0.0 0.0 0.00 0.00 0.00 60 1016.2
20190721073300 68 0.0 0.0 0.00 0.00 0.00 60 1016.3
20190721072300 68 0.0 0.0 0.00 0.00 0.00 60 1016.4
20190721071300 68 0.0 0.0 0.00 0.00 0.00 60 1016.3
20190721070301 68 0.0 0.0 0.00 0.00 0.00 60 1016.3
20190721065300 68 0.0 0.0 0.00 0.00 0.00 60 1016.1
20190721064300 68 0.0 0.0 0.00 0.00 0.00 60 1016.1
20190721063300 68 0.0 0.0 0.00 0.00 0.00 60 1016.1
20190721062300 68 0.0 0.0 0.00 0.00 0.00 61 1016.2
20190721061301 68 0.0 0.0 0.00 0.00 0.00 61 1016.3
20190721060300 68 0.0 0.0 0.00 0.00 0.00 61 1016.4
20190721055300 68 0.0 0.0 0.00 0.00 0.00 61 1016.5
20190721054300 68 0.0 0.0 0.00 0.00 0.00 61 1016.6
20190721053300 68 0.0 0.0 0.00 0.00 0.00 61 1016.5
20190721052300 68 0.0 0.0 0.00 0.00 0.00 61 1016.5
20190721051300 68 0.0 0.0 0.00 0.00 0.00 61 1016.5
20190721050300 68 0.0 0.0 0.00 0.00 0.00 62 1016.3
20190721045300 68 0.0 0.0 0.00 0.00 0.00 61 1016.1
20190721044302 68 0.0 0.0 0.00 0.00 0.00 62 1016.2
20190721043301 68 0.0 0.0 0.00 0.00 0.00 62 1016.2
20190721042300 68 0.0 0.0 0.00 0.00 0.00 62 1016.0
20190721041300 68 0.0 0.0 0.00 0.00 0.00 62 1016.3
20190721040300 68 0.0 0.0 0.00 0.00 0.00 62 1016.2
20190721035300 68 0.0 0.0 0.00 0.00 0.00 61 1015.9
20190721034300 68 0.0 0.0 0.00 0.00 0.00 62 1015.8
20190721033300 68 0.0 0.0 0.00 0.00 0.00 61 1015.7
20190721032300 68 0.0 0.0 0.00 0.00 0.00 62 1015.8
20190721031300 68 0.0 0.0 0.00 0.00 0.00 62 1015.9
20190721030300 68 0.0 0.0 0.00 0.00 0.00 61 1015.8
20190721025301 68 0.0 0.0 0.00 0.00 0.00 61 1015.7
20190721024300 68 0.0 0.0 0.00 0.00 0.00 61 1015.6
20190721023300 68 0.0 0.0 0.00 0.00 0.00 61 1015.5
20190721022300 68 0.0 0.0 0.00 0.00 0.00 61 1015.5
20190721021300 68 0.0 0.0 0.00 0.00 0.00 61 1015.5
20190721020300 68 0.0 0.0 0.00 0.00 0.00 60 1015.5
20190721015300 68 0.0 0.0 0.00 0.00 0.00 60 1015.5
20190721014300 68 0.0 0.0 0.00 0.00 0.00 60 1015.5
20190721013300 68 0.0 0.0 0.00 0.00 0.00 60 1015.6
20190721012300 68 0.0 0.0 0.00 0.00 0.00 59 1015.4
20190721011300 67 0.0 0.0 0.00 0.00 0.00 59 1015.3
20190721010300 67 0.0 0.0 0.00 0.00 0.00 58 1015.1
20190721005300 67 0.0 0.0 0.00 0.00 0.00 58 1014.9
20190721004300 65 0.0 0.0 0.00 0.00 0.00 61 1015.1
20190721003300 64 0.0 0.0 0.00 0.00 0.00 62 1015.0
20190721002300 65 0.0 0.0 0.00 0.00 0.00 60 1014.9
20190721001300 65 0.0 0.0 0.00 0.00 0.00 61 1014.8
20190721000300 65 0.0 0.0 0.00 0.00 0.00 62 1014.9
20190720235302 65 0.0 0.0 0.00 0.00 0.00 61 1014.9
20190720234300 66 0.0 0.0 0.00 0.00 0.00 60 1014.8
20190720233300 64 0.0 0.0 0.00 0.00 0.00 63 1015.0
20190720232301 65 0.0 0.0 0.00 0.00 0.00 61 1014.9
20190720231302 65 0.0 0.0 0.00 0.00 0.00 61 1014.8
20190720230300 66 0.0 0.0 0.00 0.00 0.00 60 1014.7
20190720225300 65 0.0 0.0 0.00 0.00 0.00 62 1014.6
20190720224300 65 0.0 0.0 0.00 0.00 0.00 63 1014.6
20190720223300 66 0.0 0.0 0.00 0.00 0.00 61 1014.4
20190720222300 66 0.0 0.0 0.00 0.00 0.00 60 1014.2
20190720221300 66 0.0 0.0 0.00 0.00 0.00 59 1014.1
20190720220301 66 0.0 0.0 0.00 0.00 0.00 60 1014.0
20190720215300 66 0.0 0.0 0.00 0.00 0.00 59 1014.0
20190720214301 65 0.0 0.0 0.00 0.00 0.00 61 1013.9
20190720213301 65 0.0 0.0 0.00 0.00 0.00 60 1014.0
20190720212301 66 0.0 0.0 0.00 0.00 0.00 59 1013.9